Tracking 32139 objects as of 14-Nov-2025
HD Live streaming from Space Station
objects crossing your sky now

USA 402

Track USA 402 now!
10-day predictions


NORAD ID: 61023
Int'l Code: 2024-160C
Perigee: 582.1 km
Apogee: 586.3 km
Inclination: 70.0 °
Period: 96.2 minutes
Semi major axis: 6955 km
RCS: Unknown
Launch date: September 6, 2024
Source: United States (US)
Launch site: AIR FORCE WESTERN TEST RANGE (AFWTR)
Your satellite tracking list
Your tracking list is empty




NASA's NSSDC Master Catalog

Two Line Element Set (TLE):
1 61023U 24160C   25197.92870103 0.00000000  00000-0  00000-0 0    02
2 61023  69.9900 134.7904 0003022  52.6897 307.3103 14.96713893    07
Source of the keplerian elements: McCants